Location: Newark
(50.0953°N, 2.1719°E)
Time: 10:00:42
(UTC+00:00)

N. Korean satellite - Pass Details

Date: 23 January 2020
Orbit: 456 x 505 km, 97.2° (Epoch: 25 February)

Event Time Altitude Azimuth Distance (km) Brightness Sun altitude
Rises 17:12:21 0° 185° (S) 2,465 10.5 -7.0°
Reaches altitude 10° 17:14:29 10° 194° (SSW) 1,595 9.7 -7.4°
Maximum altitude 17:17:40 36° 262° (W) 741 8.3 -7.8°
Drops below altitude 10° 17:20:54 10° 331° (NNW) 1,612 9.3 -8.3°
Sets 17:23:04 0° 341° (NNW) 2,496 10.2 -8.6°
